This is the latest recevied weather packets stored in our database for station/object OE6JVE-13. If no packets are shown the sender has not sent any weather packets the latest 10 day(s).
| Time | Temp. | Humidity | Pressure | Rain* | Wind** | Luminosity | Snow |
|---|---|---|---|---|---|---|---|
| 1777403454 | 13.33° C | 70% | 1011.9 hPa | 0 mm | - | - | - |
| 1777402862 | 13.33° C | 70% | 1011.8 hPa | 0 mm | - | - | - |
| 1777402270 | 13.89° C | 68% | 1011.7 hPa | 0 mm | - | - | - |
| 1777401678 | 13.89° C | 67% | 1011.6 hPa | 0 mm | - | - | - |
| 1777401020 | 13.89° C | 65% | 1011.6 hPa | 0 mm | - | - | - |
| 1777400428 | 13.89° C | 64% | 1011.4 hPa | 0 mm | - | - | - |
| 1777399836 | 14.44° C | 62% | 1011.2 hPa | 0 mm | - | - | - |
| 1777399244 | 14.44° C | 62% | 1011.1 hPa | 0 mm | - | - | - |
| 1777398652 | 15° C | 61% | 1011.1 hPa | 0 mm | - | - | - |
| 1777398060 | 15.56° C | 60% | 1010.9 hPa | 0 mm | - | - | - |
| 1777397467 | 16.11° C | 57% | 1010.7 hPa | 0 mm | - | - | - |
| 1777396876 | 16.67° C | 53% | 1010.7 hPa | 0 mm | - | - | - |
| 1777396218 | 17.22° C | 49% | 1010.7 hPa | 0 mm | - | - | - |
| 1777395626 | 17.78° C | 43% | 1010.6 hPa | 0 mm | - | - | - |
| 1777395034 | 17.78° C | 41% | 1010.4 hPa | 0 mm | - | - | - |
| 1777394442 | 18.33° C | 40% | 1010.4 hPa | 0 mm | - | - | - |
| 1777393850 | 18.33° C | 40% | 1010.3 hPa | 0 mm | - | - | - |
| 1777393257 | 18.89° C | 40% | 1010.4 hPa | 0 mm | - | - | - |
| 1777392665 | 19.44° C | 38% | 1010.3 hPa | 0 mm | - | - | - |
| 1777392073 | 19.44° C | 37% | 1010.3 hPa | 0 mm | - | - | - |
| 1777391480 | 20.56° C | 36% | 1010.3 hPa | 0 mm | - | - | - |
| 1777390822 | 21.11° C | 37% | 1010.4 hPa | 0 mm | - | - | - |
| 1777390230 | 21.11° C | 37% | 1010.3 hPa | 0 mm | - | - | - |
| 1777389638 | 20.56° C | 37% | 1010.3 hPa | 0 mm | - | - | - |
| 1777389046 | 20° C | 39% | 1010.2 hPa | 0 mm | - | - | - |
* Rain latest hour (hover to see other rain measurements)
** Current wind speed in m/s (hover to see current wind gust speed)